STARLINK-11324, 61879

Orbit data source: Space-Track

STARLINK-11324, 61879 is a payload satellite owned by SpaceX/Seattle (US) in LEO that was launched on Sat, 09 Nov 2024 UTC via an FALCON 9 launch vehicle from the Air Force Western Test Range (AFWTR). Payload-class satellites include a variety of spacecraft equipped with specific instruments for various scientific and technological missions. These include communications satellites like Starlink; space stations such as the ISS; scientific satellites like the Hubble; Earth observation satellites from companies like Planet Labs, Umbra, and HawkEye 360; GPS; miniature CubeSats for education and research; and military/defense satellites.

Loading next visibility...
Identifier
61879, 2024-204F
Orbit
LEO
Country
Flag of USUS
Related business
Manufacturer
SpaceX/Seattle
Mission
Operational Commercial Communications
Bus & Motor
STARLINK V2MD, Unknown motor
Mass
960 kg wet, ~910 kg dry
Launch date (UTC)
2024-11-09 (2 years ago)
Launch vehicle
FALCON 9
Launch site
Air Force Western Test Range (AFWTR)
Object type
Payload
Rocket body
Debris
Shape & HBR
Box + 2 Pan, 18.1 m
Radar Cross Section
36.964 m², Large (>1 m²)

Expand to show TLE details & history
Last TLE update: 11 hours ago

TLE from 11 hours ago
0 STARLINK-11324
1 61879U 24204F   26171.39196407 -.00000937  00000-0 -28756-5 0  9993
2 61879  53.1595 210.0907 0001184  71.7530 288.3616 15.69697290 93041
Epoch: 2026-06-20T09:24Z
TLE epoch observation values (Epoch: 2026-06-20T09:24:25.695Z)
Latitude
-0.00009°
Longitude
160.37632°
Altitude
360.427 km
Speed
7.694 km/s
True Right ascension
14h 00m 21s
True Declination
0° 00' 00"
Sunlit
Object was in full shadow at epoch
Visualization orbit readout
Latitude
Unknown
Longitude
Unknown
Altitude
Unknown
Speed
Unknown
Apparent Right ascension
Unknown
Apparent Declination
Unknown
Sunlit
N/A
Visualization observer readout
Local Sidereal Time
07:14:24
Azimuth
Unknown
Elevation
Unknown
Doppler factor
Unknown
Orbital elements
Apogee altitude
360.822 km
Perigee altitude
359.226 km
Semi-major axis
6,738.161 km
Eccentricity
0.00012
Inclination
53.1595°
RAAN
210.0907°
Arg. of periapsis
71.753°
True anomaly
288.34872°
Mean anomaly
288.3616°
Eccentric anomaly
288.35516°
Mean motion
3.92402 °/min
Orbital period
91.74 mins
BSTAR
-0.0000028756
Loading maneuver chart data...
Computing Atmospheric mass density...
Loading historical data...
Loading historical data...
Loading historical data...
Loading historical data...
Loading historical data...
Loading historical data...
Loading historical data...

Documentation

Showing up to 5 results
|